sat.trackr.live / text

‹ back to catalog

STARLINK-2257

NORAD 47787 · 2021-018A

PAYLOAD ACTIVE UNKNOWN

§ Identity

Operator
Country
US
Launch date
2021-03-11
Launch site
AFETR
Launch vehicle
Mass (kg)
RCS (m²)

Purposes: comms

External: N2YO · Heavens-Above · Gunter

§ Orbital elements

Epoch: 2026-05-25T00:05:07.469088Z

Period
94.01 min
Inclination
53.1621°
Eccentricity
0.0000431
Mean motion
15.31704447 rev/d
Perigee alt
470.4 km
Apogee alt
471.0 km
Semi-major
6,848.9 km
B*
-4.5005e-5
RAAN
250.7593°
Arg perigee
228.0184°
Mean anomaly
132.0780°
Rev number
28,837

§ Raw data

STARLINK-22571 47787U 21018A   26145.00355867 -.00001761  00000+0 -45005-4 0  99912 47787  53.1621 250.7593 0000431 228.0184 132.0780 15.31704447288372

JSON: /api/v1/satellites/47787 · /tle

For live sub-satellite position, see the globe view (requires WebGL).

§ Visibility from observer

Set your observer location to see the next 7 days of passes ≥ 10°. The values pass through the URL so the page stays shareable.

No JS? Fill the form by hand. The geolocation button needs JavaScript.